Camden, SC

1:45 PM EDT on June 22, 2017 (GMT -0400)
Woodward

Weather History for KCDN - August, 2014

Change the Weather History Date:

Thursday, August 21, 2014

  Actual Average (KSSC) Record (KSSC)
Temperature  
Mean Temperature 83 °F -  
Max Temperature 93 °F 87 °F 101 °F (2007)
Min Temperature 73 °F 68 °F 59 °F (1998)
Cooling Degree Days 18    
Growing Degree Days 33 (Base 50)    
Moisture  
Dew Point 69 °F    
Average Humidity 67    
Maximum Humidity 94    
Minimum Humidity 36    
Precipitation  
Precipitation 0.00 in - - ()
Sea Level Pressure  
Sea Level Pressure 30.06 in    
Wind  
Wind Speed 2 mph (NNE)    
Max Wind Speed 9 mph    
Max Gust Speed -    
Visibility 9 miles    
Events      
Averages and records for this station are not official NWS values.
T = Trace of Precipitation, MM = Missing Value Source: NWS Daily Summary

Daily Weather History Graph

Daily Weather History Graph

Search for Another Location

Airport or City:

Trip Planner

Search our weather history database for the weather conditions in past years. The results will help you decide how hot, cold, wet, or windy it might be!

Date:

Astronomy

Aug. 21, 2014 Rise Set
Actual Time 6:47 AM EDT 8:02 PM EDT
Civil Twilight 6:21 AM EDT 8:28 PM EDT
Nautical Twilight 5:50 AM EDT 8:59 PM EDT
Astronomical Twilight 5:17 AM EDT 9:31 PM EDT
Moon 3:21 AM EDT (8/21) 5:26 PM EDT (8/21)
Length of Visible Light 14h 06m
Length of Day
13h 14m
Waning Crescent, 13% of the Moon is Illuminated
Aug 21
Waning Crescent
Aug 25
New
Sep 2
First Quarter
Sep 8
Full
Sep 15
Last Quarter

Hourly Weather History & Observations

Time (EDT) Temp. Heat Index Dew Point Humidity Pressure Visibility Wind Dir Wind Speed Gust Speed Precip Events Conditions
12:15 AM 77.0 °F - 73.4 °F 89% 30.04 in 10.0 mi Calm Calm - N/A   Partly Cloudy
12:35 AM 77.0 °F - 73.4 °F 89% 30.03 in 10.0 mi Calm Calm - N/A   Clear
12:55 AM 77.0 °F - 73.4 °F 89% 30.03 in 10.0 mi Calm Calm - N/A   Clear
1:15 AM 77.0 °F - 73.4 °F 89% 30.04 in 9.0 mi Calm Calm - N/A   Clear
1:35 AM 77.0 °F - 75.2 °F 94% 30.03 in 9.0 mi Calm Calm - N/A   Clear
1:55 AM 77.0 °F - 75.2 °F 94% 30.03 in 9.0 mi Calm Calm - N/A   Clear
2:15 AM 77.0 °F - 73.4 °F 89% 30.02 in 9.0 mi Calm Calm - N/A   Clear
2:35 AM 77.0 °F - 73.4 °F 89% 30.02 in 10.0 mi WSW 3.5 mph - N/A   Clear
2:55 AM 75.2 °F - 73.4 °F 94% 30.02 in 8.0 mi Calm Calm - N/A   Clear
3:15 AM 75.2 °F - 73.4 °F 94% 30.01 in 7.0 mi Calm Calm - N/A   Clear
3:35 AM 75.2 °F - 73.4 °F 94% 30.01 in 8.0 mi Calm Calm - N/A   Clear
3:55 AM 75.2 °F - 73.4 °F 94% 30.00 in 8.0 mi Calm Calm - N/A   Clear
4:15 AM 75.2 °F - 71.6 °F 89% 29.99 in 9.0 mi SSW 3.5 mph - N/A   Clear
4:35 AM 73.4 °F - 71.6 °F 94% 30.02 in 8.0 mi NNW 8.1 mph - N/A   Clear
4:55 AM 73.4 °F - 71.6 °F 94% 30.02 in 8.0 mi Calm Calm - N/A   Clear
5:15 AM 73.4 °F - 71.6 °F 94% 30.02 in 8.0 mi Calm Calm - N/A   Clear
5:35 AM 73.4 °F - 71.6 °F 94% 30.03 in 8.0 mi WNW 3.5 mph - N/A   Clear
5:55 AM 73.4 °F - 71.6 °F 94% 30.04 in 9.0 mi NW 3.5 mph - N/A   Clear
6:15 AM 73.4 °F - 71.6 °F 94% 30.04 in 9.0 mi Calm Calm - N/A   Clear
6:35 AM 73.4 °F - 71.6 °F 94% 30.05 in 9.0 mi NW 3.5 mph - N/A   Clear
6:55 AM 73.4 °F - 71.6 °F 94% 30.06 in 7.0 mi Calm Calm - N/A   Clear
7:15 AM 73.4 °F - 71.6 °F 94% 30.07 in 7.0 mi Calm Calm - N/A   Clear
7:35 AM 73.4 °F - 71.6 °F 94% 30.07 in 8.0 mi Calm Calm - N/A   Clear
7:55 AM 75.2 °F - 71.6 °F 89% 30.08 in 8.0 mi Calm Calm - N/A   Clear
8:35 AM 77.0 °F - 71.6 °F 83% 30.09 in 9.0 mi NNW 4.6 mph - N/A   Clear
8:55 AM 78.8 °F - 71.6 °F 78% 30.09 in 9.0 mi NNW 5.8 mph - N/A   Clear
9:15 AM 80.6 °F 83.9 °F 69.8 °F 70% 30.09 in 9.0 mi North 3.5 mph - N/A   Clear
9:35 AM 82.4 °F 85.4 °F 68.0 °F 62% 30.10 in 10.0 mi North 5.8 mph - N/A   Clear
9:55 AM 84.2 °F 87.3 °F 68.0 °F 58% 30.10 in 10.0 mi NNE 6.9 mph - N/A   Clear
10:15 AM 84.2 °F 86.6 °F 66.2 °F 55% 30.10 in 10.0 mi North 8.1 mph - N/A   Clear
10:35 AM 84.2 °F 86.6 °F 66.2 °F 55% 30.10 in 10.0 mi NNE 6.9 mph - N/A   Clear
10:55 AM 86.0 °F 89.4 °F 68.0 °F 55% 30.10 in 10.0 mi NNE 4.6 mph - N/A   Clear
11:15 AM 87.8 °F 91.4 °F 68.0 °F 52% 30.10 in 10.0 mi NNW 5.8 mph - N/A   Clear
11:35 AM 89.6 °F 92.2 °F 66.2 °F 46% 30.10 in 10.0 mi NNE 8.1 mph - N/A   Clear
11:55 AM 89.6 °F 93.4 °F 68.0 °F 49% 30.10 in 10.0 mi North 8.1 mph - N/A   Clear
12:15 PM 89.6 °F 93.4 °F 68.0 °F 49% 30.10 in 10.0 mi Calm Calm - N/A   Clear
12:35 PM 89.6 °F 93.4 °F 68.0 °F 49% 30.10 in 10.0 mi NE 5.8 mph - N/A   Clear
12:55 PM 89.6 °F 93.4 °F 68.0 °F 49% 30.09 in 10.0 mi East 3.5 mph - N/A   Clear
1:15 PM 91.4 °F 94.0 °F 66.2 °F 43% 30.09 in 10.0 mi East 8.1 mph - N/A   Clear
1:35 PM 91.4 °F 94.0 °F 66.2 °F 43% 30.09 in 10.0 mi NNE 8.1 mph - N/A   Clear
1:55 PM 91.4 °F 93.2 °F 64.4 °F 41% 30.08 in 10.0 mi Calm Calm - N/A   Clear
2:15 PM 93.2 °F 96.2 °F 66.2 °F 41% 30.08 in 10.0 mi East 5.8 mph - N/A   Clear
2:35 PM 93.2 °F 94.9 °F 64.4 °F 38% 30.08 in 10.0 mi NW 9.2 mph - N/A   Clear
2:55 PM 93.2 °F 94.9 °F 64.4 °F 38% 30.08 in 9.0 mi ENE 4.6 mph - N/A   Clear
3:15 PM 93.2 °F 94.9 °F 64.4 °F 38% 30.07 in 10.0 mi Calm Calm - N/A   Clear
3:35 PM 93.2 °F 94.9 °F 64.4 °F 38% 30.07 in 10.0 mi NE 8.1 mph - N/A   Clear
3:55 PM 93.2 °F 94.1 °F 62.6 °F 36% 30.06 in 10.0 mi Calm Calm - N/A   Clear
4:15 PM 93.2 °F 94.9 °F 64.4 °F 38% 30.05 in 10.0 mi North 5.8 mph - N/A   Partly Cloudy
4:55 PM 93.2 °F 94.9 °F 64.4 °F 38% 30.05 in 10.0 mi North 3.5 mph - N/A   Clear
5:15 PM 93.2 °F 94.1 °F 62.6 °F 36% 30.05 in 10.0 mi ENE 5.8 mph - N/A   Clear
5:35 PM 93.2 °F 94.9 °F 64.4 °F 38% 30.05 in 9.0 mi NNE 6.9 mph - N/A   Clear
5:55 PM 93.2 °F 94.9 °F 64.4 °F 38% 30.05 in 10.0 mi NE 3.5 mph - N/A   Clear
6:15 PM 93.2 °F 96.2 °F 66.2 °F 41% 30.05 in 10.0 mi NE 4.6 mph - N/A   Clear
6:35 PM 91.4 °F 93.2 °F 64.4 °F 41% 30.05 in 10.0 mi Calm Calm - N/A   Clear
6:55 PM 91.4 °F 94.0 °F 66.2 °F 43% 30.05 in 10.0 mi Calm Calm - N/A   Clear
7:15 PM 91.4 °F 94.0 °F 66.2 °F 43% 30.06 in 10.0 mi Calm Calm - N/A   Clear
7:35 PM 89.6 °F 93.4 °F 68.0 °F 49% 30.06 in 10.0 mi Calm Calm - N/A   Clear
7:55 PM 87.8 °F 93.8 °F 71.6 °F 58% 30.07 in 9.0 mi Calm Calm - N/A   Clear
8:15 PM 87.8 °F 91.4 °F 68.0 °F 52% 30.06 in 10.0 mi Calm Calm - N/A   Clear
8:35 PM 84.2 °F 88.4 °F 69.8 °F 62% 30.06 in 10.0 mi Calm Calm - N/A   Clear
8:55 PM 82.4 °F 86.3 °F 69.8 °F 66% 30.07 in 10.0 mi Calm Calm - N/A   Clear
9:15 PM 82.4 °F 87.2 °F 71.6 °F 70% 30.07 in 10.0 mi Calm Calm - N/A   Clear
9:55 PM 82.4 °F 87.2 °F 71.6 °F 70% 30.08 in 10.0 mi Calm Calm - N/A   Clear
10:15 PM 80.6 °F 85.4 °F 73.4 °F 79% 30.08 in 10.0 mi Calm Calm - N/A   Clear
10:35 PM 78.8 °F - 71.6 °F 78% 30.08 in 10.0 mi Calm Calm - N/A   Clear
11:15 PM 77.0 °F - 69.8 °F 78% 30.07 in 10.0 mi Calm Calm - N/A   Clear
11:35 PM 77.0 °F - 69.8 °F 78% 30.07 in 10.0 mi Calm Calm - N/A   Clear
11:55 PM 77.0 °F - 71.6 °F 83% 30.07 in 10.0 mi Calm Calm - N/A   Clear